TimeEST,TemperatureF,Dew PointF,Humidity,Sea Level PressureIn,VisibilityMPH,Wind Direction,Wind SpeedMPH,Gust SpeedMPH,PrecipitationIn,Events,Conditions,WindDirDegrees,DateUTC
12:58 AM,37.0,25.0,62,29.95,10.0,NW,13.8,-,N/A,,Clear,310,2013-03-04 05:58:00
1:58 AM,36.0,23.0,59,29.94,10.0,NW,16.1,-,N/A,,Clear,320,2013-03-04 06:58:00
2:58 AM,35.1,21.9,59,29.95,10.0,NW,19.6,-,N/A,,Clear,320,2013-03-04 07:58:00
3:58 AM,34.0,19.9,56,29.96,10.0,NW,19.6,25.3,N/A,,Clear,320,2013-03-04 08:58:00
4:58 AM,32.0,19.9,61,29.98,10.0,NW,17.3,-,N/A,,Clear,310,2013-03-04 09:58:00
6:58 AM,30.9,19.9,64,30.03,10.0,NW,15.0,-,N/A,,Clear,310,2013-03-04 11:58:00
7:58 AM,34.0,21.0,59,30.05,10.0,NW,13.8,-,N/A,,Clear,310,2013-03-04 12:58:00
8:58 AM,37.0,21.0,52,30.06,10.0,NNW,11.5,-,N/A,,Clear,330,2013-03-04 13:58:00
9:58 AM,39.9,19.9,45,30.07,10.0,NW,12.7,-,N/A,,Clear,320,2013-03-04 14:58:00
10:58 AM,41.0,19.9,43,30.07,10.0,NW,15.0,25.3,N/A,,Partly Cloudy,320,2013-03-04 15:58:00
11:58 AM,44.1,19.0,37,30.06,10.0,NNW,10.4,-,N/A,,Clear,340,2013-03-04 16:58:00
12:58 PM,46.0,19.0,34,30.04,10.0,NW,16.1,21.9,N/A,,Clear,310,2013-03-04 17:58:00
1:58 PM,46.0,16.0,30,30.02,10.0,NW,10.4,-,N/A,,Clear,310,2013-03-04 18:58:00
2:58 PM,46.9,18.0,32,30.02,10.0,WNW,8.1,-,N/A,,Clear,290,2013-03-04 19:58:00
3:58 PM,48.9,19.9,32,30.01,10.0,WNW,13.8,-,N/A,,Clear,300,2013-03-04 20:58:00
4:58 PM,48.0,18.0,30,30.02,10.0,WNW,12.7,-,N/A,,Clear,290,2013-03-04 21:58:00
5:58 PM,45.0,19.9,37,30.04,10.0,WNW,9.2,-,N/A,,Clear,290,2013-03-04 22:58:00
6:58 PM,43.0,23.0,45,30.07,10.0,West,6.9,-,N/A,,Clear,280,2013-03-04 23:58:00
7:58 PM,41.0,21.9,47,30.08,10.0,WNW,5.8,-,N/A,,Clear,290,2013-03-05 00:58:00
8:58 PM,41.0,23.0,49,30.09,10.0,West,4.6,-,N/A,,Clear,260,2013-03-05 01:58:00
9:58 PM,42.1,23.0,47,30.10,10.0,WSW,4.6,-,N/A,,Clear,250,2013-03-05 02:58:00
10:58 PM,36.0,25.0,64,30.10,10.0,SW,5.8,-,N/A,,Clear,230,2013-03-05 03:58:00
11:58 PM,44.1,26.1,49,30.10,10.0,West,4.6,-,N/A,,Clear,260,2013-03-05 04:58:00